Location: Fort Wayne
(41.1310°N, 85.1290°W)
Time: 22:19:41
(UTC-04:00)

Vanguard 3 - Visible Passes

Search period start: 30 April 2016 00:00
Search period end: 10 May 2016 00:00
Orbit: 509 x 3267 km, 33.3° (Epoch: 30 April)

Date Brightness Start Highest point End Pass type
(mag) Time Alt. Az. Time Alt. Az. Time Alt. Az.
30 Apr 9.6 01:05:05 10° SW 01:26:58 36° ESE 01:32:28 10° E visible
30 Apr 8.7 03:31:27 41° WSW 03:35:45 57° S 03:43:39 10° ESE visible
30 Apr 8.6 05:38:47 10° W 05:47:46 34° SSW 05:53:17 10° SE visible
30 Apr 10.6 21:39:04 10° S 21:52:13 22° SE 22:01:31 14° ESE visible
30 Apr 9.7 23:49:26 10° SW 00:15:46 22° ESE 00:18:58 10° E visible
01 May 9.0 02:05:00 10° WSW 02:21:23 59° S 02:30:59 10° E visible
01 May 8.6 04:24:27 15° W 04:34:31 49° SSW 04:41:30 10° SE visible
01 May 10.1 22:34:49 10° SSW 22:51:32 36° SSE 23:04:42 10° E visible
02 May 9.4 00:48:34 10° WSW 01:06:28 56° SSE 01:17:54 10° E visible
02 May 8.8 03:05:31 10° W 03:20:37 58° S 03:29:12 10° ESE visible
02 May 8.8 05:23:02 10° W 05:32:44 33° SSW 05:38:43 10° SSE visible
02 May 10.5 21:21:41 10° S 21:36:16 26° SE 21:49:13 10° E visible
02 May 9.8 23:32:49 10° SW 23:51:07 49° SSE 00:04:17 10° E visible
03 May 9.1 01:48:41 10° WSW 02:06:02 62° S 02:16:26 10° ESE visible
03 May 8.8 04:06:14 10° W 04:19:25 48° SSW 04:26:59 10° SE visible
03 May 10.1 22:18:05 10° SSW 22:35:36 40° SSE 22:49:56 10° E visible
04 May 9.5 00:32:10 10° WSW 00:50:52 59° S 01:03:13 10° E visible
04 May 9.0 02:49:17 10° W 03:05:21 59° S 03:14:39 10° ESE visible
04 May 9.0 05:07:12 10° W 05:17:35 32° SW 05:24:05 10° SSE visible
04 May 10.5 21:04:43 10° SSW 21:20:13 30° SE 21:34:30 10° E visible
04 May 9.8 23:16:22 10° SW 23:35:17 53° SSE 23:49:28 10° E visible
05 May 9.3 01:32:23 10° WSW 01:50:34 63° S 02:01:48 10° ESE visible
05 May 9.0 03:50:08 10° W 04:04:11 47° SSW 04:12:24 10° SE visible
05 May 10.1 22:01:36 10° SW 22:19:34 45° SSE 22:35:00 10° E visible
06 May 9.6 00:15:52 10° WSW 00:35:09 62° S 00:48:27 10° E visible
06 May 9.1 02:33:04 10° W 02:49:58 59° SSW 03:00:03 10° ESE visible
06 May 9.2 04:51:18 10° W 05:02:19 31° SW 05:09:18 10° SSE visible
06 May 10.5 20:48:06 10° SSW 21:04:04 34° SE 21:19:32 10° E visible
06 May 9.9 23:00:06 10° SW 23:19:21 57° SSE 23:34:31 10° E visible
07 May 9.4 01:16:09 10° W 01:34:58 65° S 01:47:05 10° ESE visible
07 May 9.1 03:34:00 10° W 03:48:49 46° SSW 03:57:43 10° SE visible
07 May 9.7 05:53:59 10° W 05:59:43 15° SW 06:04:12 10° SSW visible
07 May 10.2 21:45:21 10° SW 22:03:28 49° SSE 22:19:53 10° E visible
07 May 9.7 23:59:42 10° WSW 00:19:21 65° S 00:33:35 10° E visible
08 May 9.3 02:16:51 10° W 02:34:28 58° SSW 02:45:20 10° ESE visible
08 May 9.4 04:35:22 10° W 04:46:53 29° SW 04:54:25 10° SSE visible
08 May 9.9 22:44:01 10° WSW 23:03:20 60° SSE 23:19:28 10° E visible
09 May 9.5 00:59:59 10° W 01:19:16 65° S 01:32:17 10° ESE visible
09 May 9.3 03:17:50 10° W 03:33:18 44° SSW 03:42:56 10° SE visible
09 May 9.9 05:38:46 10° WSW 05:44:15 14° SW 05:48:40 10° SSW visible
09 May 10.2 21:29:19 10° SW 21:47:18 52° SSE 22:04:38 10° E visible
